Date String (YYYY-MM-DD hh:mm:ss) UTC,Instrument flags,absolute air pressure of the measurement (hPa),sample flow rate (lpm),inlet stack bypass flow (lpm),air temperature of the measurement (°C),ambient temperature measured by the external sensor (°C),aerosol sample conditioner tube jacket temperature (°C),OPC LED temperature (°C),internal box temperature (°C),relative humidity of the measurement (%),span deviation,mass concentration of particles derived from Lorenz-Mie calculation of OPC scattering (μg/m³),mass concentration of particles derived from Lorenz-Mie calculation of OPC scattering (μg/m³),mass concentration of particles derived from Lorenz-Mie calculation of OPC scattering (μg/m³)
DateTimeUTC,F1_M11,P_M11,Q1_M11,Q2_M11,T1_M11,T2_M11,T3_M11,T4_M11,T5_M11,U1_M11,ZSPAN_M11,X2_M11,X0_M11,X1_M11
2023-11-26 11:00:00,SystemResetWarning,0831.2,5.00,000.00,018.8,017.8,000.0,027.2,020.1,10.3,0000.0,0002.11,0005.47,0001.77
2023-11-26 11:01:00,SystemResetWarning,0831.2,4.99,000.00,018.9,018.3,000.0,027.2,020.5,10.3,0000.0,0002.09,0005.45,0001.77
2023-11-26 11:02:00,SystemResetWarning,0831.3,5.01,000.00,019.0,019.0,000.0,027.2,020.8,10.2,0000.0,0002.09,0005.08,0001.76
2023-11-26 11:03:00,SystemResetWarning,0831.2,4.98,000.00,019.0,018.9,000.0,027.2,020.3,10.3,0000.0,0002.05,0004.13,0001.77
2023-11-26 11:04:00,SystemResetWarning,0831.2,4.99,000.00,018.9,018.7,000.0,027.2,020.0,10.4,0000.0,0002.02,0004.08,0001.76
2023-11-26 11:05:00,SystemResetWarning,0831.2,5.00,000.00,018.9,018.4,000.0,027.2,020.0,10.5,0000.0,0001.97,0003.94,0001.76
2023-11-26 11:06:00,SystemResetWarning,0831.3,5.00,000.00,018.8,018.2,000.0,027.3,020.0,10.5,0000.0,0001.98,0003.89,0001.75
2023-11-26 11:07:00,SystemResetWarning,0831.2,5.00,000.00,018.8,018.1,000.0,027.3,020.0,10.5,0000.0,0001.96,0003.76,0001.74
2023-11-26 11:08:00,SystemResetWarning,0831.2,5.00,000.00,018.8,017.9,000.0,027.3,020.0,10.5,0000.0,0001.95,0003.75,0001.73
2023-11-26 11:09:00,SystemResetWarning,0831.2,5.00,000.00,018.8,017.8,000.0,027.3,020.0,10.5,0000.0,0001.95,0003.78,0001.72
2023-11-26 11:10:00,SystemResetWarning,0831.2,5.00,000.00,018.8,017.9,000.0,027.2,020.2,10.5,0000.0,0001.96,0003.74,0001.72
2023-11-26 11:11:00,SystemResetWarning,0831.3,5.01,000.00,018.9,018.6,000.0,027.2,020.7,10.4,0000.0,0001.96,0002.52,0001.71
2023-11-26 11:12:00,SystemResetWarning,0831.2,4.99,000.00,019.0,019.1,000.0,027.2,020.6,10.4,0000.0,0001.98,0002.56,0001.72
2023-11-26 11:13:00,SystemResetWarning,0831.2,4.99,000.00,019.0,018.8,000.0,027.2,020.1,10.5,0000.0,0002.01,0002.67,0001.72
2023-11-26 11:14:00,SystemResetWarning,0831.2,5.01,000.00,018.9,018.6,000.0,027.2,020.0,10.6,0000.0,0002.03,0002.76,0001.72
2023-11-26 11:15:00,SystemResetWarning,0831.2,5.00,000.00,018.9,018.3,000.0,027.2,020.0,10.7,0000.0,0002.00,0002.67,0001.72
2023-11-26 11:16:00,SystemResetWarning,0831.2,5.00,000.00,018.8,018.2,000.0,027.3,020.0,10.7,0000.0,0002.01,0002.61,0001.72
2023-11-26 11:17:00,SystemResetWarning,0831.2,4.99,000.00,018.8,018.0,000.0,027.3,020.0,10.6,0000.0,0001.99,0002.60,0001.72
2023-11-26 11:18:00,SystemResetWarning,0831.3,5.01,000.00,018.8,017.9,000.0,027.3,020.0,10.6,0000.0,0001.95,0002.53,0001.71
2023-11-26 11:19:00,SystemResetWarning,0831.3,5.00,000.00,018.8,017.8,000.0,027.3,020.0,10.7,0000.0,0001.94,0002.52,0001.71
2023-11-26 11:20:00,SystemResetWarning,0831.3,5.01,000.00,018.9,018.1,000.0,027.2,020.4,10.7,0000.0,0001.97,0002.58,0001.72
2023-11-26 11:21:00,SystemResetWarning,0831.3,5.00,000.00,019.0,018.9,000.0,027.2,020.8,10.6,0000.0,0001.96,0002.56,0001.71
2023-11-26 11:22:00,SystemResetWarning,0831.3,4.99,000.00,019.0,018.9,000.0,027.2,020.3,10.5,0000.0,0001.95,0002.52,0001.71
2023-11-26 11:23:00,SystemResetWarning,0831.3,5.00,000.00,018.9,018.7,000.0,027.2,020.0,10.5,0000.0,0001.94,0002.57,0001.71
2023-11-26 11:24:00,SystemResetWarning,0831.3,5.01,000.00,018.9,018.4,000.0,027.2,020.0,10.6,0000.0,0001.93,0002.62,0001.71
2023-11-26 11:25:00,SystemResetWarning,0831.3,5.00,000.00,018.9,018.2,000.0,027.2,020.0,10.5,0000.0,0001.89,0002.49,0001.70
2023-11-26 11:26:00,SystemResetWarning,0831.3,5.00,000.00,018.8,018.1,000.0,027.3,020.0,10.4,0000.0,0001.89,0002.48,0001.70
2023-11-26 11:27:00,SystemResetWarning,0831.3,5.00,000.00,018.8,017.9,000.0,027.3,020.0,10.4,0000.0,0001.91,0002.54,0001.69
2023-11-26 11:28:00,SystemResetWarning,0831.3,5.00,000.00,018.8,017.8,000.0,027.3,020.0,10.4,0000.0,0001.88,0002.48,0001.67
2023-11-26 11:29:00,SystemResetWarning,0831.3,5.02,000.00,018.8,018.1,000.0,027.2,020.4,10.4,0000.0,0001.89,0002.50,0001.69
2023-11-26 11:30:00,SystemResetWarning,0831.3,5.00,000.00,019.0,018.8,000.0,027.2,020.8,10.4,0000.0,0001.91,0002.54,0001.70
2023-11-26 11:31:00,SystemResetWarning,0831.3,4.98,000.00,019.0,018.9,000.0,027.2,020.4,10.4,0000.0,0001.88,0002.46,0001.68
2023-11-26 11:32:00,SystemResetWarning,0831.3,5.01,000.00,018.9,018.7,000.0,027.2,020.0,10.4,0000.0,0001.87,0002.42,0001.67
2023-11-26 11:33:00,SystemResetWarning,0831.3,5.00,000.00,018.9,018.4,000.0,027.2,020.0,10.4,0000.0,0001.87,0002.40,0001.67
2023-11-26 11:34:00,SystemResetWarning,0831.2,5.00,000.00,018.9,018.2,000.0,027.3,020.0,10.4,0000.0,0001.86,0002.35,0001.67
2023-11-26 11:35:00,SystemResetWarning,0831.2,5.00,000.00,018.8,018.1,000.0,027.3,020.0,10.4,0000.0,0001.88,0002.30,0001.67
2023-11-26 11:36:00,SystemResetWarning,0831.2,5.00,000.00,018.8,017.9,000.0,027.3,020.0,10.4,0000.0,0001.90,0002.36,0001.67
2023-11-26 11:37:00,SystemResetWarning,0831.2,5.00,000.00,018.8,017.8,000.0,027.3,020.0,10.3,0000.0,0001.91,0002.48,0001.67
2023-11-26 11:38:00,SystemResetWarning,0831.2,5.00,000.00,018.8,017.8,000.0,027.2,020.1,10.4,0000.0,0001.91,0002.52,0001.67
2023-11-26 11:39:00,SystemResetWarning,0831.2,5.01,000.00,018.9,018.4,000.0,027.2,020.6,10.4,0000.0,0001.91,0002.53,0001.68
2023-11-26 11:40:00,SystemResetWarning,0831.3,5.00,000.00,019.0,019.0,000.0,027.2,020.7,10.3,0000.0,0001.92,0002.56,0001.67
2023-11-26 11:41:00,SystemResetWarning,0831.3,4.99,000.00,019.0,018.9,000.0,027.2,020.2,10.3,0000.0,0001.92,0002.59,0001.66
2023-11-26 11:42:00,SystemResetWarning,0831.3,5.00,000.00,018.9,018.6,000.0,027.2,020.0,10.4,0000.0,0001.93,0002.60,0001.67
2023-11-26 11:43:00,SystemResetWarning,0831.3,5.00,000.00,018.9,018.4,000.0,027.2,020.0,10.4,0000.0,0001.93,0002.62,0001.68
2023-11-26 11:44:00,SystemResetWarning,0831.3,5.00,000.00,018.8,018.2,000.0,027.3,020.0,10.5,0000.0,0001.94,0002.64,0001.69
2023-11-26 11:45:00,SystemResetWarning,0831.3,5.00,000.00,018.8,018.0,000.0,027.3,020.0,10.5,0000.0,0001.97,0002.70,0001.69
2023-11-26 11:46:00,SystemResetWarning,0831.3,5.00,000.00,018.8,017.9,000.0,027.3,020.0,10.4,0000.0,0001.96,0002.63,0001.69
2023-11-26 11:47:00,SystemResetWarning,0831.3,5.00,000.00,018.8,017.8,000.0,027.3,020.0,10.5,0000.0,0001.97,0002.62,0001.70
2023-11-26 11:48:00,SystemResetWarning,0831.3,5.01,000.00,018.8,018.0,000.0,027.2,020.3,10.4,0000.0,0001.96,0002.54,0001.71
2023-11-26 11:49:00,SystemResetWarning,0831.3,5.02,000.00,018.9,018.7,000.0,027.2,020.7,10.3,0000.0,0001.95,0002.45,0001.71
2023-11-26 11:50:00,SystemResetWarning,0831.3,4.98,000.00,019.0,019.0,000.0,027.2,020.5,10.3,0000.0,0001.96,0002.45,0001.71
2023-11-26 11:51:00,SystemResetWarning,0831.3,5.00,000.00,018.9,018.7,000.0,027.2,020.0,10.4,0000.0,0001.94,0002.40,0001.70
2023-11-26 11:52:00,SystemResetWarning,0831.3,5.00,000.00,018.9,018.5,000.0,027.2,020.0,10.3,0000.0,0001.92,0002.37,0001.70
2023-11-26 11:53:00,SystemResetWarning,0831.3,5.00,000.00,018.8,018.3,000.0,027.2,020.0,10.4,0000.0,0001.93,0002.38,0001.69
2023-11-26 11:54:00,SystemResetWarning,0831.3,5.00,000.00,018.8,018.1,000.0,027.3,020.0,10.5,0000.0,0001.92,0002.36,0001.67
2023-11-26 11:55:00,SystemResetWarning,0831.3,5.00,000.00,018.8,017.9,000.0,027.3,020.0,10.5,0000.0,0001.91,0002.34,0001.67
2023-11-26 11:56:00,SystemResetWarning,0831.3,5.00,000.00,018.8,017.8,000.0,027.3,020.0,10.6,0000.0,0001.87,0002.25,0001.66
2023-11-26 11:57:00,SystemResetWarning,0831.3,5.01,000.00,018.8,017.7,000.0,027.2,020.1,10.5,0000.0,0001.84,0002.20,0001.65
2023-11-26 11:58:00,SystemResetWarning,0831.3,5.01,000.00,018.9,018.2,000.0,027.2,020.5,10.4,0000.0,0001.81,0002.17,0001.63
2023-11-26 11:59:00,SystemResetWarning,0831.3,5.00,000.00,019.0,019.0,000.0,027.2,020.8,10.4,0000.0,0001.81,0002.19,0001.63
